Location: Penton Mewsey
(51.2167°N, 1.5167°W)
Time: 23:56:36
(UTC+00:00)

COSMOS 2455 - Pass Details

Date: 30 March 2020
Orbit: 900 x 910 km, 67.1° (Epoch: 30 May)

Event Time Altitude Azimuth Distance (km) Brightness Sun altitude
Rises 22:51:16 0° 320° (NW) 3,545 6.9 -32.0°
Reaches altitude 10° 22:53:53 10° 314° (NW) 2,601 6.0 -32.2°
Enters shadow 22:58:22 39° 273° (W) 1,342 3.8 -32.5°
